Weather reports worldwide

Advertisment
Williamsport PA, United States of America (72514): temperature & dewpoint: 19.05.2019 02:00:00 - 25.05.2019 02:00:00 (EDT)Williamsport PA, United States of America (72514): wind speed & gusts: 19.05.2019 02:00:00 - 25.05.2019 02:00:00 (EDT)Williamsport PA, United States of America (72514): wind direction: 19.05.2019 02:00:00 - 25.05.2019 02:00:00 (EDT)Williamsport PA, United States of America (72514): reduced air pressure: 19.05.2019 02:00:00 - 25.05.2019 02:00:00 (EDT)Williamsport PA, United States of America (72514): visibility: 19.05.2019 02:00:00 - 25.05.2019 02:00:00 (EDT)Williamsport PA, United States of America (72514): precipitation: 19.05.2019 02:00:00 - 25.05.2019 02:00:00 (EDT)
Date & Time tt [°C] td [°C] ff [km/h] ff [kn] fx [km/h] fx [kn] dd ppp [hPa] vv [km] rr [mm]
25.05.2019 02:00:00 15,6 10,6 8 4 - - E 1020,6 16 -
25.05.2019 01:00:00 15,6 10,6 9 5 - - ESE 1020,8 16 -
25.05.2019 00:00:00 16,1 11,1 8 4 - - E 1020,8 16 -
24.05.2019 23:00:00 17,8 11,7 5 3 - - E 1019,7 16 -
24.05.2019 22:00:00 19,4 11,1 0 0 - - N 1019,0 16 -
24.05.2019 21:00:00 21,1 10,0 0 0 - - N 1018,5 16 -
24.05.2019 20:00:00 22,8 8,9 8 4 - - NNW 1017,9 16 0,0
24.05.2019 19:00:00 23,9 7,8 9 5 - - NNW 1017,5 16 -
24.05.2019 18:00:00 24,4 8,3 15 8 - - NNW 1016,8 16 -
24.05.2019 17:00:00 25,6 7,2 16 9 - - N 1016,0 16 -
24.05.2019 16:00:00 26,7 6,7 22 12 - - NNW 1015,8 16 -
24.05.2019 15:00:00 26,1 6,1 28 15 - - WNW 1015,6 16 -
24.05.2019 14:00:00 25,6 7,8 24 13 - - WNW 1015,8 16 0,0
24.05.2019 13:00:00 25,0 8,3 22 12 - - W 1015,6 16 -
24.05.2019 12:00:00 23,3 7,8 22 12 - - WNW 1015,8 16 -
24.05.2019 11:00:00 22,2 8,3 26 14 - - NW 1015,4 16 -
24.05.2019 10:00:00 20,0 8,3 24 13 - - WNW 1015,3 16 -
24.05.2019 09:00:00 18,9 8,9 18 10 - - W 1015,6 16 -
24.05.2019 08:00:00 17,2 8,3 15 8 - - WNW 1015,3 16 0,0
24.05.2019 07:00:00 16,1 7,8 16 9 - - W 1014,7 16 -
24.05.2019 06:00:00 15,0 7,8 15 8 - - W 1014,3 16 -
24.05.2019 05:00:00 16,7 7,8 16 9 - - WNW 1013,5 16 -
24.05.2019 04:00:00 16,7 8,9 13 7 - - WNW 1012,7 16 -
24.05.2019 03:00:00 18,3 8,3 13 7 - - W 1012,2 16 -
24.05.2019 02:00:00 17,8 13,9 11 6 - - W 1011,6 16 -
24.05.2019 01:00:00 18,9 15,6 9 5 - - W 1011,2 16 -
24.05.2019 00:00:00 19,4 16,7 13 7 - - WSW 1011,4 16 -
23.05.2019 23:00:00 21,7 17,2 16 9 - - W 1010,9 16 -
23.05.2019 22:00:00 23,3 16,7 13 7 - - WNW 1010,3 16 -
23.05.2019 21:00:00 21,1 18,9 0 0 - - N 1009,9 16 0,0
23.05.2019 20:00:00 24,4 17,8 5 3 - - - 1009,7 16 0,0
23.05.2019 19:00:00 25,0 18,3 0 0 - - N 1010,0 16 -
23.05.2019 18:00:00 24,4 18,3 0 0 - - N 1010,6 16 -
23.05.2019 17:00:00 23,9 18,3 9 5 - - - 1011,7 16 -
23.05.2019 16:00:00 22,2 17,2 5 3 - - - 1013,2 16 -
23.05.2019 15:00:00 21,1 16,7 11 6 - - E 1014,6 16 -
23.05.2019 14:00:00 20,6 16,1 5 3 - - E 1016,0 16 1,8
23.05.2019 13:00:00 18,9 15,6 0 0 - - N 1016,5 4,8 1,3
23.05.2019 12:00:00 20,6 13,9 11 6 - - ESE 1017,2 16 -
23.05.2019 11:00:00 19,4 13,3 13 7 - - SE 1018,0 16 -
23.05.2019 10:00:00 17,8 12,8 8 4 - - - 1018,8 16 -
23.05.2019 09:00:00 17,2 12,2 9 5 - - - 1019,2 16 -
23.05.2019 08:00:00 16,1 11,7 0 0 - - N 1020,1 16 -
23.05.2019 07:00:00 14,4 12,2 5 3 - - SSE 1019,7 16 -
23.05.2019 06:00:00 13,3 11,7 5 3 - - SE 1019,9 16 -
23.05.2019 05:00:00 13,9 11,7 9 5 - - ESE 1019,8 10 0,5
23.05.2019 04:00:00 14,4 11,1 8 4 - - NE 1020,2 16 0,0
23.05.2019 03:00:00 14,4 12,2 8 4 - - ESE 1020,1 16 0,0
23.05.2019 02:00:00 17,2 7,8 13 7 - - N 1020,4 15 0,0
23.05.2019 01:00:00 18,3 6,7 11 6 - - - 1020,8 16 -
23.05.2019 00:00:00 17,2 6,7 15 8 - - ENE 1021,3 16 -
22.05.2019 23:00:00 17,8 6,7 9 5 - - E 1021,8 16 -
22.05.2019 22:00:00 17,8 6,7 9 5 - - E 1021,5 16 -
22.05.2019 21:00:00 18,9 5,0 5 3 - - N 1021,8 16 -
22.05.2019 20:00:00 20,0 5,0 0 0 - - N 1021,9 16 0,0
22.05.2019 19:00:00 19,4 5,6 0 0 - - N 1021,6 16 -
22.05.2019 18:00:00 20,0 4,4 5 3 - - SSE 1022,1 16 -
22.05.2019 17:00:00 20,0 4,4 11 6 - - S 1022,3 16 -
22.05.2019 16:00:00 20,6 3,3 8 4 - - ESE 1022,9 16 -
22.05.2019 15:00:00 20,6 3,3 8 4 - - - 1023,3 16 -
22.05.2019 14:00:00 20,6 3,3 5 3 - - - 1023,5 16 0,0
22.05.2019 13:00:00 19,4 1,7 5 3 - - - 1024,4 16 -
22.05.2019 12:00:00 19,4 2,8 5 3 - - - 1024,4 16 -
22.05.2019 11:00:00 17,8 3,9 5 3 - - ENE 1024,9 16 -
22.05.2019 10:00:00 14,4 5,6 5 3 - - - 1025,4 16 -
22.05.2019 09:00:00 12,2 5,6 13 7 - - W 1025,5 16 -
22.05.2019 08:00:00 9,4 5,6 13 7 - - W 1025,1 16 0,0
22.05.2019 07:00:00 7,2 5,0 0 0 - - N 1024,5 16 -
22.05.2019 06:00:00 5,0 3,9 0 0 - - N 1023,9 16 -
22.05.2019 05:00:00 5,6 3,9 0 0 - - N 1023,3 16 -
22.05.2019 04:00:00 6,7 4,4 0 0 - - N 1023,1 16 -
22.05.2019 03:00:00 7,2 4,4 0 0 - - N 1022,8 16 -
22.05.2019 02:00:00 8,3 4,4 5 3 - - WNW 1022,4 16 0,0
22.05.2019 01:00:00 8,3 4,4 0 0 - - N 1022,1 16 -
22.05.2019 00:00:00 10,6 3,9 0 0 - - N 1021,7 16 -
21.05.2019 23:00:00 12,2 3,9 5 3 - - NNW 1021,1 16 -
21.05.2019 22:00:00 15,0 2,2 5 3 - - NNE 1020,6 16 -
21.05.2019 21:00:00 16,1 1,7 11 6 - - N 1019,9 16 -
21.05.2019 20:00:00 17,8 0,0 11 6 - - NW 1018,6 16 0,0
21.05.2019 19:00:00 19,4 0,0 16 9 - - NNW 1018,0 16 -
21.05.2019 18:00:00 20,6 0,6 16 9 - - N 1017,3 16 -
21.05.2019 17:00:00 20,6 1,1 21 11 - - NNW 1016,9 16 -
21.05.2019 16:00:00 21,7 2,2 21 11 - - NW 1016,3 16 -
21.05.2019 15:00:00 21,7 2,8 16 9 - - N 1015,9 16 -
21.05.2019 14:00:00 20,6 2,2 24 13 - - NNW 1016,1 16 0,0
21.05.2019 13:00:00 18,9 2,2 24 13 - - NNW 1016,7 16 -
21.05.2019 12:00:00 18,3 3,3 9 5 - - - 1016,7 16 -
21.05.2019 11:00:00 16,1 2,2 26 14 - - NW 1017,3 16 -
21.05.2019 10:00:00 14,4 2,8 15 8 - - WNW 1017,4 16 -
21.05.2019 09:00:00 12,8 2,8 21 11 - - WNW 1017,3 16 -
21.05.2019 08:00:00 11,1 2,2 22 12 - - WNW 1017,0 16 0,0
21.05.2019 07:00:00 10,0 2,8 18 10 - - NW 1016,9 16 -
21.05.2019 06:00:00 10,6 1,7 21 11 - - WNW 1015,7 16 -
21.05.2019 05:00:00 11,7 2,2 26 14 - - WNW 1014,9 16 -
21.05.2019 04:00:00 12,8 3,3 22 12 - - WNW 1014,3 16 -
21.05.2019 03:00:00 13,3 4,4 18 10 - - NW 1013,6 16 -
21.05.2019 02:00:00 14,4 4,4 21 11 - - WNW 1013,2 16 0,0
21.05.2019 01:00:00 15,0 5,0 21 11 - - WNW 1012,8 16 -
21.05.2019 00:00:00 16,1 6,7 18 10 - - WNW 1012,9 16 -
20.05.2019 23:00:00 17,2 7,8 16 9 - - NW 1012,8 16 -
20.05.2019 22:00:00 18,3 8,9 22 12 - - NW 1012,0 16 -
20.05.2019 21:00:00 21,1 10,0 22 12 - - WNW 1009,6 16 -
20.05.2019 20:00:00 24,4 9,4 24 13 - - W 1007,7 16 0,0
20.05.2019 19:00:00 25,0 10,6 24 13 - - WSW 1007,1 16 -
20.05.2019 18:00:00 26,1 11,7 21 11 48 26 WSW 1006,7 16 -
20.05.2019 17:00:00 26,7 10,0 31 17 - - W 1006,7 16 -
20.05.2019 16:00:00 27,8 12,2 26 14 52 28 WSW 1007,0 16 -
20.05.2019 15:00:00 26,7 10,6 39 21 50 27 W 1007,4 16 -
20.05.2019 14:00:00 25,6 13,3 22 12 - - WSW 1007,5 16 -
20.05.2019 13:00:00 25,6 15,0 24 13 - - SW 1008,2 16 -
20.05.2019 12:00:00 23,9 15,6 26 14 - - WSW 1008,7 16 0,0
20.05.2019 11:00:00 21,1 16,7 11 6 - - WSW 1009,1 16 0,0
20.05.2019 10:00:00 21,7 17,2 8 4 - - W 1009,1 16 -
20.05.2019 09:00:00 21,1 17,2 5 3 - - N 1009,3 16 -
20.05.2019 08:00:00 19,4 17,8 0 0 - - N 1009,5 16 -
20.05.2019 07:00:00 17,8 16,7 5 3 - - ESE 1009,5 15 -
20.05.2019 06:00:00 18,3 17,2 5 3 - - E 1009,3 16 0,5
20.05.2019 05:00:00 18,3 17,8 0 0 - - N 1009,7 13 3,8
20.05.2019 04:00:00 18,9 17,8 9 5 - - WNW 1009,6 11 -
20.05.2019 03:00:00 18,9 17,8 0 0 - - N 1009,4 11 -
20.05.2019 02:00:00 20,0 18,3 5 3 - - WNW 1009,4 16 -
20.05.2019 01:00:00 20,6 18,9 13 7 - - ENE 1009,5 16 -
20.05.2019 00:00:00 20,0 18,3 8 4 - - E 1009,4 16 -
19.05.2019 23:00:00 20,0 18,3 13 7 - - ESE 1010,0 16 -
19.05.2019 22:00:00 20,0 18,9 11 6 - - SE 1010,7 16 0,5
19.05.2019 21:00:00 20,0 18,9 13 7 - - ENE 1010,2 16 0,5
19.05.2019 20:00:00 20,6 18,9 0 0 - - N 1011,0 8 2,3
19.05.2019 19:00:00 24,4 16,7 11 6 - - S 1009,6 16 0,5
19.05.2019 18:00:00 25,0 18,9 16 9 - - SW 1011,1 16 0,0
19.05.2019 17:00:00 24,4 18,3 8 4 48 26 NNW 1010,9 16 0,0
19.05.2019 16:00:00 27,2 18,9 16 9 - - SSE 1010,5 16 -
19.05.2019 15:00:00 26,7 18,9 22 12 - - E 1011,6 16 -
19.05.2019 14:00:00 26,1 18,9 13 7 - - ESE 1012,9 16 0,0
19.05.2019 13:00:00 23,9 17,8 15 8 - - ESE 1013,6 16 -
19.05.2019 12:00:00 22,8 17,8 9 5 - - - 1014,8 16 -
19.05.2019 11:00:00 21,1 17,2 11 6 - - E 1015,0 13 -
19.05.2019 10:00:00 20,0 16,7 9 5 - - ESE 1015,5 11 -
19.05.2019 09:00:00 19,4 16,1 9 5 - - E 1015,7 11 -
19.05.2019 08:00:00 16,7 13,9 5 3 - - WNW 1015,8 16 0,0
19.05.2019 07:00:00 13,9 12,2 0 0 - - N 1015,8 16 -
19.05.2019 06:00:00 12,8 11,7 5 3 - - - 1015,6 10 -
19.05.2019 05:00:00 12,2 10,6 0 0 - - N 1015,5 16 -
19.05.2019 04:00:00 12,8 11,1 0 0 - - N 1015,2 16 -
19.05.2019 03:00:00 13,3 11,1 0 0 - - N 1015,2 16 -
19.05.2019 02:00:00 13,3 11,1 0 0 - - N 1015,4 16 0,0

tt = temperature
td = dewpoint
ff = wind speed
fx = gusts
dd = wind direction
ppp = reduced air pressure
vv = visibility
rr = precipitation

Next stations